Location: Bannatyne
(13.0833°N, 59.5333°W)
Time: 09:50:02
(UTC+00:00)

Vanguard 2 Rocket - Pass Details

Date: 25 January 2020
Orbit: 554 x 3326 km, 32.9° (Epoch: 28 March)

Event Time Altitude Azimuth Distance (km) Brightness Sun altitude
Rises 05:03:18 0° 222° (SW) 3,730 - -75.9°
Reaches altitude 10° 05:06:38 10° 214° (SSW) 2,432 - -75.2°
Maximum altitude 05:11:24 33° 149° (SSE) 1,070 - -74.1°
Drops below altitude 10° 05:15:04 10° 83° (E) 1,854 - -73.3°
Sets 05:17:16 0° 73° (ENE) 2,711 - -72.8°
